Regional Weather Roundup
Issued by NWS

Home | Current Version | Previous Version | Text Only | Print | Product List | Glossary Off
Versions: 1 2 3 4 5 6 7 8 9 10 11 12 13 14 15 16 17 18 19 20 21 22 23 24 25 26 27 28 29 30 31 32 33 34 35 36 37 38 39 40 41 42 43 44 45 46 47 48 49 50

000
ASUS43 KDTX 301210
RWRMI
MICHIGAN HOURLY REGIONAL WEATHER ROUNDUP
NATIONAL WEATHER SERVICE DETROIT/PONTIAC MI
800 AM EDT THU JUL 30 2015

NOTE: "FAIR" INDICATES FEW OR NO CLOUDS BELOW 12,000 FEET WITH NO
SIGNIFICANT WEATHER AND/OR OBSTRUCTION TO VISIBILITY.

MIZ047>049-052>055-059>063-066>070-074>076-081>083-301300-
SOUTHEAST LOWER MICHIGAN

CITY           SKY/WX    TMP DP  RH WIND       PRES   REMARKS
ADRIAN         SUNNY     65  59  81 W5        30.00R
6HR MIN TEMP:  61; 6HR MAX TEMP:  67;

ALMA           SUNNY     67  60  78 W6        29.95R
ANN ARBOR      SUNNY     67  60  78 W7        29.98R
BAD AXE        SUNNY     65  59  79 SW7       29.91R
6HR MIN TEMP:  60; 6HR MAX TEMP:  65;

CARO           SUNNY     66  59  78 SW6       29.92R
DETROIT CITY   SUNNY     70  58  65 W8        29.96R
6HR MIN TEMP:  66; 6HR MAX TEMP:  70;

DETROIT        MOSUNNY   70  59  68 W6        29.97R
6HR MIN TEMP:  64; 6HR MAX TEMP:  70;

FLINT          SUNNY     69  59  70 W9        29.95R
6HR MIN TEMP:  65; 6HR MAX TEMP:  69;

GROSSE ILE     SUNNY     70  61  73 W5        29.96R
HILLSDALE      SUNNY     68  61  80 W8        30.01S
6HR MIN TEMP:  63; 6HR MAX TEMP:  68;

HOWELL         SUNNY     66  59  78 W7        29.98R

CITY           SKY/WX    TMP DP  RH WIND       PRES   REMARKS
JACKSON        SUNNY     66  59  78 W8        30.00R
6HR MIN TEMP:  60; 6HR MAX TEMP:  66;

LAMBERTVILLE   SUNNY     67  59  75 W7        30.00R
6HR MIN TEMP:  64; 6HR MAX TEMP:  68;

LANSING        SUNNY     68  58  70 W9        29.98R
6HR MIN TEMP:  64; 6HR MAX TEMP:  68;

LAPEER         FAIR      67  59  76 W5        29.95R
MASON          SUNNY     65  57  75 W6        29.98R
MONROE         SUNNY     66  61  85 W5        29.98R
MT. CLEMENS    MOSUNNY   69  60  72 W8        29.92S
6HR MIN TEMP:  65; 6HR MAX TEMP:  69;

PONTIAC        SUNNY     68  59  73 W7        29.95R
6HR MIN TEMP:  64; 6HR MAX TEMP:  69;

PORT HOPE        N/A     68  61  78 SW7       29.87R
6HR MIN TEMP:  65; 6HR MAX TEMP:  70;

PORT HURON     SUNNY     64  61  88 CALM      29.93S
TRI CITIES     SUNNY     68  59  73 W9        29.93R
6HR MIN TEMP:  62; 6HR MAX TEMP:  69;

MIDLAND        FAIR      68  57  67 W6        29.91R
6HR MIN TEMP:  63; 6HR MAX TEMP:  68;

TROY           SUNNY     68  60  75 MISG      29.97S
SAGINAW HB     SUNNY     68  59  73 SW8       29.92R
$$
MIZ043>046-050>051-056>058-064>065-071>073-077>080-301300-
SOUTHWEST LOWER MICHIGAN

CITY           SKY/WX    TMP DP  RH WIND       PRES   REMARKS
BATTLE CREEK   SUNNY     69  60  73 W8        30.01R
6HR MIN TEMP:  64; 6HR MAX TEMP:  71;

BENTON HARBOR  SUNNY     72  62  71 W9        30.01R
6HR MIN TEMP:  68; 6HR MAX TEMP:  73;

BIG RAPIDS     SUNNY     67  56  67 W8        29.94R
6HR MIN TEMP:  64; 6HR MAX TEMP:  67;

COLDWATER      SUNNY     64  59  85 W5        30.01S
6HR MIN TEMP:  59; 6HR MAX TEMP:  64;

FREMONT        FAIR      68  59  72 W5        29.95R
HOLLAND        SUNNY     72  60  66 W9        29.99R
6HR MIN TEMP:  71; 6HR MAX TEMP:  74;

GRAND RAPIDS   SUNNY     69  59  70 W8        29.98R
6HR MIN TEMP:  64; 6HR MAX TEMP:  69;

IONIA          FAIR      67  59  76 W8        29.96R
KALAMAZOO      SUNNY     69  60  73 W7        30.01R
6HR MIN TEMP:  65; 6HR MAX TEMP:  70;

LUDINGTON      SUNNY     71  60  67 W9        29.94R
6HR MIN TEMP:  71; 6HR MAX TEMP:  76;

MARSHALL       SUNNY     65  60  81 W5        30.00R
MOUNT PLEASANT SUNNY     70  58  65 W8        29.93R
6HR MIN TEMP:  66; 6HR MAX TEMP:  70;

MUSKEGON       SUNNY     72  54  53 W12       29.97R
6HR MIN TEMP:  70; 6HR MAX TEMP:  74;

SOUTH HAVEN    SUNNY     72  61  69 W9        30.00S
$$
MIZ016>042-301300-
NORTHERN LOWER MICHIGAN

CITY           SKY/WX    TMP DP  RH WIND       PRES   REMARKS
ALPENA         SUNNY     70  57  63 SW7       29.83R
6HR MIN TEMP:  66; 6HR MAX TEMP:  70;

BEAVER ISLAND  SUNNY     69  60  72 W17       29.82R
6HR MIN TEMP:  67; 6HR MAX TEMP:  71;

BELLAIRE       SUNNY     72  58  60 SW6       29.86R
6HR MIN TEMP:  71; 6HR MAX TEMP:  74;

CADILLAC       SUNNY     66  57  72 W8        29.92R
CHARLEVOIX     SUNNY     71  60  69 W16G25    29.87R
FRANKFORT      SUNNY     70  61  72 NW13G21   29.90R
GAYLORD        SUNNY     69  58  67 W12       29.87R
6HR MIN TEMP:  64; 6HR MAX TEMP:  69;

GRAYLING       SUNNY     66  56  71 W9        29.89R
6HR MIN TEMP:  63; 6HR MAX TEMP:  66;

HARBOR SPRINGS SUNNY     71  60  69 W9G21     29.83R
HOUGHTON LAKE  SUNNY     68  58  70 W10       29.90R
6HR MIN TEMP:  67; 6HR MAX TEMP:  70;

MANISTEE       SUNNY     70  55  60 W15G23    29.92R
OSCODA         SUNNY     68  57  67 W13       29.86R
PELLSTON       SUNNY     71  57  61 W12       29.82R
6HR MIN TEMP:  65; 6HR MAX TEMP:  72;

ROGERS CITY    SUNNY     70  59  69 SW10      29.82R
TRAVERSE CITY  SUNNY     72  57  59 W12       29.86R
6HR MIN TEMP:  70; 6HR MAX TEMP:  73;

$$
MIZ007>008-015-301300-
EASTERN UPPER MICHIGAN

CITY           SKY/WX    TMP DP  RH WIND       PRES   REMARKS
KINROSS        SUNNY     66  57  72 W9        29.76S
6HR MIN TEMP:  64; 6HR MAX TEMP:  70;

MACKINAC ISLAN SUNNY     69  57  65 W15G26    29.79R
MUNISING         N/A     70  54  56 VRB3      29.78R
6HR MIN TEMP:  66; 6HR MAX TEMP:  74;

$$
MIZ004>006-011>014-085-301300-
CENTRAL UPPER MICHIGAN

CITY           SKY/WX    TMP DP  RH WIND       PRES   REMARKS
MANISTIQUE     SUNNY     68  54  60 W10G21    29.80S
ESCANABA       SUNNY     66  54  63 W12       29.83R
6HR MIN TEMP:  63; 6HR MAX TEMP:  70;

MENOMINEE      SUNNY     64  54  68 W6        29.89R
6HR MIN TEMP:  64; 6HR MAX TEMP:  70;

SAWYER-GWINN   SUNNY     66  52  59 W13       29.81R
$$
MIZ001>003-009>011-084-301300-
WESTERN UPPER MICHIGAN

CITY           SKY/WX    TMP DP  RH WIND       PRES   REMARKS
IRON MOUNTAIN  SUNNY     66  53  63 W9        29.86R
6HR MIN TEMP:  64; 6HR MAX TEMP:  69;

HOUGHTON       SUNNY     65  54  67 W21G35    29.79R
6HR MIN TEMP:  65; 6HR MAX TEMP:  68;

COPPER HARBOR    N/A     66  52  60 N25G37    29.75R
6HR MIN TEMP:  66; 6HR MAX TEMP:  71;

IRONWOOD       SUNNY     64  55  72 W12       29.89R
6HR MIN TEMP:  63; 6HR MAX TEMP:  66;

$$

ABBREVIATIONS USED IN REMARKS
   TC - TEMPERATURE IN CELSIUS
  WCI - WIND CHILL INDEX
   HX - HEAT INDEX
  VSB - VISIBILITY




USA.gov is the U.S. government's official web portal to all federal, state and local government web resources and services.